Location: Arcueil
(48.7999°N, 2.3326°E)
Time: 00:01:45
(UTC+00:00)

MINOTAUR 4 R/B - Pass Details

Date: 03 February 2023
Orbit: 448 x 453 km, 98.0° (Epoch: 21 March)

Event Time Altitude Azimuth Distance (km) Brightness Sun altitude
Exits shadow 17:18:51 - 72° (ENE) 1,872 6.3 -5.1°
Enters shadow 18:36:21 -30° 10° (N) 7,170 9.9 -17.5°
Maximum altitude 18:53:16 89° 282° (WNW) 456 3.8 -20.3°
